Location: Capelle
(50.3413°N, 1.9974°E)
Time: 20:44:55
(UTC+00:00)

Cosmos 2218 Rocket - Pass Details

Date: 12 January 2026
Orbit: 955 x 1005 km, 82.9° (Epoch: 15 February)

Event Time Altitude Azimuth Distance (km) Brightness Sun altitude
Rises 17:42:31 0° 351° (N) 3,743 7.0 -13.7°
Reaches altitude 10° 17:45:04 10° 353° (N) 2,791 6.3 -14.1°
Maximum altitude 17:51:30 74° 79° (ENE) 1,047 4.0 -15.1°
Drops below altitude 10° 17:57:53 10° 164° (SSE) 2,768 6.4 -16.0°
Sets 18:00:24 0° 166° (SSE) 3,710 7.1 -16.4°
